Theta_e
315 317 316 309 296 296 291 294 300 298 299 305 306 304 302 305 301 299 312 311 312 314 317 325 334 343 349 351 354 353 354 355 355 355 355 354 354 354 355 353 352 353 355 354 352 350 351 348 348
313 314 311 303 291 287 291 297 296 299 302 305 305 305 303 301 308 310 312 310 311 312 314 317 329 336 344 348 350 350 353 354 354 355 354 354 354 354 355 354 352 353 355 354 351 350 351 348 348
314 313 302 295 291 287 289 296 298 299 303 302 302 306 304 303 308 307 308 309 310 311 312 314 327 326 333 338 345 349 350 352 353 354 354 354 354 354 354 353 352 353 353 355 352 352 352 349 348
309 305 301 292 289 293 294 296 299 297 299 301 302 300 306 308 307 306 308 308 308 309 310 314 321 319 323 324 327 339 349 350 351 352 354 354 354 353 352 352 351 352 352 353 353 353 351 348 348
308 302 292 289 290 293 297 298 299 296 296 298 300 297 300 305 307 307 306 307 306 307 308 310 320 317 318 320 322 325 335 349 350 350 352 353 353 352 351 352 351 351 351 352 352 351 349 347 347
298 298 289 286 290 294 297 299 299 297 297 298 297 297 298 306 305 305 304 304 305 304 306 307 312 318 317 320 318 320 325 331 348 348 350 351 351 351 351 351 350 350 351 351 350 349 348 347 345
294 293 289 289 290 292 295 300 296 296 295 296 300 294 299 303 305 303 301 302 303 303 304 305 306 308 313 317 318 321 323 323 335 345 345 346 348 347 348 348 348 350 350 350 349 348 346 346 344
296 293 287 289 289 289 296 294 296 295 294 299 298 293 295 302 303 299 299 299 301 302 302 303 304 305 305 310 314 317 320 320 325 338 338 337 339 340 341 341 344 348 348 348 347 346 345 344 342
298 287 285 287 288 290 295 290 295 295 291 293 295 295 298 299 298 296 296 297 298 299 300 301 302 302 304 306 306 313 317 320 325 332 331 331 345 347 345 341 339 344 344 345 345 344 342 339 336
291 286 286 291 291 289 291 290 290 288 287 288 290 293 295 295 294 293 293 293 295 296 298 299 300 301 303 302 306 309 312 318 318 334 343 340 343 346 347 339 331 337 338 341 343 341 337 335 341
288 285 289 290 290 289 286 285 288 285 283 287 287 289 292 292 292 292 293 294 294 296 298 298 299 300 301 302 305 307 309 314 321 320 341 342 342 343 344 345 337 342 331 343 342 339 340 340 341
282 286 286 286 287 285 284 286 284 285 285 289 290 290 290 290 291 291 292 293 294 295 296 298 299 299 301 302 302 305 307 310 314 321 324 339 340 340 342 343 342 341 341 341 342 341 340 339 341
282 284 286 286 286 285 286 283 284 284 288 290 290 290 290 290 291 292 293 294 295 294 296 297 299 299 299 301 303 304 306 308 312 317 321 330 337 338 340 342 343 342 341 339 340 339 337 337 339
285 284 284 285 285 285 283 283 284 285 289 288 288 289 290 290 291 292 292 292 293 295 296 297 298 299 300 300 302 303 304 307 310 314 319 323 333 337 338 340 341 342 341 337 338 337 335 335 337
285 280 282 283 284 283 285 279 280 286 288 287 288 288 289 290 291 291 292 292 294 295 296 298 298 299 299 299 300 302 304 305 308 312 317 319 325 336 337 338 339 341 342 340 337 335 333 332 332
280 280 276 282 284 285 283 275 282 286 286 285 286 287 288 289 290 292 292 293 295 295 295 297 298 299 299 299 300 300 302 304 308 313 316 318 324 331 333 334 337 339 340 339 334 329 328 326 326
280 275 276 278 284 282 281 277 282 286 285 284 285 286 287 288 290 291 293 293 294 294 295 296 297 299 300 300 301 301 302 303 306 309 312 318 320 329 335 335 333 337 337 335 329 327 325 320 320
275 275 276 275 280 281 278 278 281 284 284 284 285 286 287 287 288 291 291 292 292 293 294 295 296 297 299 300 301 301 302 303 305 306 309 313 316 324 332 335 331 332 331 329 326 323 323 321 317
278 276 274 277 280 278 277 277 280 283 283 283 284 285 286 287 290 290 290 290 290 291 291 292 293 294 297 298 298 299 298 300 302 304 307 311 315 320 329 332 329 325 325 323 322 321 317 310 310
276 274 273 277 280 279 277 276 280 282 282 284 284 284 285 286 287 288 288 289 289 289 290 290 291 292 294 297 297 298 299 300 302 303 307 312 314 319 324 329 323 323 323 318 318 316 312 301 305
276 274 274 273 277 278 277 275 277 281 283 284 284 284 285 284 285 286 286 287 287 287 288 288 289 290 292 294 297 297 298 299 299 300 301 306 312 318 324 327 322 320 319 315 313 312 313 302 303
272 278 276 274 273 268 276 266 274 278 279 281 282 283 284 284 285 285 285 285 285 286 287 287 288 289 290 292 293 294 294 294 297 299 301 302 314 319 325 324 320 318 316 312 310 310 313 306 302
273 277 275 274 272 272 272 268 273 278 276 279 281 282 283 284 284 283 283 283 284 285 286 286 287 288 289 291 292 293 293 296 297 299 300 304 307 320 324 319 317 315 313 310 309 308 310 305 304
278 275 274 275 272 265 270 270 270 274 276 278 280 281 282 282 282 283 283 283 283 284 284 285 285 286 288 289 292 293 293 294 295 297 298 302 308 317 322 318 316 313 310 307 308 307 308 306 306
274 272 265 264 265 264 272 269 272 277 279 278 277 279 281 281 281 280 280 280 281 282 282 283 283 284 286 287 289 291 293 295 295 296 298 298 303 314 319 317 315 311 310 308 308 307 306 306 305
273 271 265 259 261 264 271 266 272 279 279 279 280 279 280 280 279 279 279 279 279 280 281 281 281 282 284 285 287 290 292 295 296 296 298 302 304 314 317 316 313 310 308 307 307 305 305 305 303
272 268 274 267 268 264 268 272 277 278 277 278 278 278 278 278 277 277 278 278 278 278 278 279 279 280 282 283 286 288 291 295 295 297 298 298 305 314 313 313 310 308 306 305 304 303 302 302 301
274 275 267 268 261 260 266 268 269 274 274 275 275 276 276 276 275 275 276 276 277 277 277 278 279 279 281 282 284 287 290 295 298 297 298 299 307 313 311 310 309 307 306 305 304 302 302 301 301
272 270 270 270 268 262 261 265 277 273 273 274 275 275 275 274 274 274 274 275 275 276 275 275 277 277 279 280 283 286 288 293 297 298 298 299 308 311 311 309 306 299 298 302 302 300 299 300 299
272 271 271 266 264 267 265 265 277 275 277 277 274 274 274 274 273 273 273 273 273 273 273 273 275 275 277 279 281 284 288 291 295 299 297 300 309 309 308 306 301 301 301 301 300 297 297 296 295
Wind_Speed
12 5 5 5 9 10 21 25 18 19 16 19 13 11 10 17 10 4 12 12 13 13 15 20 24 23 18 15 14 16 16 17 19 19 20 20 20 20 20 19 18 18 18 18 19 18 17 16 16
10 4 5 6 10 16 23 23 25 17 16 6 11 14 14 18 14 10 7 14 13 13 14 18 22 23 23 20 15 17 18 18 19 20 20 21 21 21 21 21 20 19 18 19 19 18 17 17 15
10 7 6 6 15 22 26 17 18 18 19 20 14 14 16 14 3 7 7 11 12 12 13 15 21 24 25 25 20 16 19 20 21 21 21 22 22 22 21 21 21 20 19 19 20 19 17 18 16
5 5 7 13 26 30 27 20 21 11 12 11 14 15 13 10 5 7 8 11 11 12 12 13 17 23 23 24 24 24 19 21 22 23 23 24 24 24 22 22 22 20 20 20 20 20 19 18 17
7 7 14 20 32 35 26 26 26 12 14 12 10 19 19 6 8 7 11 12 14 14 12 13 13 18 23 22 22 24 26 21 23 24 24 25 25 25 24 23 23 22 20 20 20 20 20 18 17
8 6 16 21 30 29 26 23 24 16 18 21 20 21 23 6 1 11 16 16 15 16 15 13 12 12 17 19 19 20 23 26 24 25 25 26 25 26 25 25 25 24 22 21 20 20 20 19 18
14 13 22 29 30 31 26 22 17 17 20 19 14 15 12 18 10 16 19 19 18 17 17 14 13 13 14 15 17 16 18 24 23 26 26 26 25 25 26 26 26 26 23 22 21 21 20 20 18
10 13 29 26 23 33 23 10 10 9 16 12 7 11 16 11 21 21 20 20 19 17 16 17 15 14 14 13 16 12 14 15 24 20 20 20 21 21 23 24 25 27 25 23 23 22 22 20 18
9 11 20 26 27 28 22 5 4 7 11 14 18 22 21 22 25 22 21 21 18 16 16 16 16 15 14 13 13 12 12 13 19 17 15 15 14 17 21 22 24 26 26 24 22 23 23 20 15
12 16 26 23 13 15 18 16 14 16 21 25 25 24 22 20 18 22 20 20 21 20 17 15 15 15 14 12 13 12 12 9 8 14 14 11 16 15 18 20 18 24 23 24 23 23 20 18 11
8 22 21 21 15 16 20 21 20 21 25 25 26 23 21 21 21 22 21 20 20 20 16 17 16 16 15 11 9 6 6 6 6 11 13 13 11 14 12 11 8 13 16 13 16 13 11 15 12
14 19 19 19 18 20 22 22 24 23 30 26 24 24 24 23 21 20 20 19 19 20 20 19 17 16 14 10 8 9 8 7 7 7 13 10 9 12 12 10 12 14 11 15 14 11 13 15 16
19 22 20 19 18 20 21 25 27 27 28 26 25 25 23 20 22 18 20 20 19 20 20 19 18 16 15 13 9 8 9 8 9 8 10 10 12 13 12 12 11 12 13 14 12 12 12 14 15
13 15 20 20 24 23 24 27 24 29 27 28 27 22 21 23 23 20 21 21 20 19 19 17 18 16 15 14 13 9 9 10 10 9 9 11 10 13 13 14 13 12 14 13 12 13 13 13 12
16 20 20 23 26 27 17 17 25 30 26 24 25 20 22 24 23 22 22 20 20 17 18 17 17 17 17 17 14 10 8 10 10 10 12 12 13 13 15 13 13 13 13 16 12 12 12 11 9
20 22 20 19 20 17 8 22 29 27 24 24 25 25 25 26 23 21 21 19 17 17 18 17 15 15 16 16 14 11 10 10 10 9 9 13 13 14 12 10 13 15 14 14 12 12 11 11 11
18 22 26 24 22 20 16 27 29 28 27 26 27 26 24 23 22 19 15 13 14 16 17 18 18 16 15 15 12 13 14 11 10 10 10 12 13 13 14 13 12 15 13 13 13 12 14 12 9
25 26 26 26 23 22 23 28 29 30 27 28 27 26 24 21 20 11 10 12 14 15 15 16 15 17 16 12 11 10 10 10 9 10 11 13 12 14 13 12 10 9 11 12 12 15 12 12 11
24 26 30 27 25 23 23 27 29 26 26 29 27 25 23 20 15 8 10 12 15 16 16 16 16 18 13 10 10 10 11 10 11 11 15 17 13 14 14 12 8 9 6 8 14 13 15 4 10
23 25 26 26 25 21 24 28 29 27 29 26 19 16 17 11 11 13 14 15 16 18 18 18 18 19 15 10 10 11 10 10 10 10 12 15 17 15 13 14 9 13 11 11 12 16 10 4 12
22 23 24 27 22 20 22 27 21 23 20 11 4 6 9 11 14 16 18 18 18 19 19 19 19 20 18 18 11 11 12 10 11 12 11 14 19 17 15 15 10 14 13 12 14 15 14 10 9
20 22 21 19 18 17 19 20 24 18 11 3 6 7 9 13 16 18 20 20 20 19 18 20 20 20 19 20 16 19 15 14 12 12 12 13 19 18 15 12 13 14 12 15 13 13 13 9 14
20 18 16 19 19 18 24 11 21 16 16 3 4 7 12 16 20 21 20 21 20 19 18 18 20 20 20 20 20 15 18 15 12 11 14 15 18 17 16 13 14 14 10 13 15 13 12 11 11
14 15 17 21 8 9 17 9 11 10 5 5 3 9 16 20 21 21 19 20 19 18 19 18 20 21 20 19 21 20 21 20 15 14 12 11 13 13 17 16 14 15 13 14 14 14 15 14 11
5 10 8 7 6 11 7 10 16 20 10 4 5 13 17 19 20 20 20 20 20 21 21 18 20 20 19 19 20 22 22 22 23 18 14 14 14 12 15 16 18 14 14 15 14 15 13 14 13
17 9 8 9 12 16 20 10 5 9 5 4 7 14 16 18 19 20 21 20 20 20 20 21 20 20 19 19 21 20 23 16 17 19 14 11 15 14 12 18 14 17 16 16 15 12 12 13 11
2 7 7 8 16 12 11 16 12 6 2 5 13 19 19 19 19 22 22 21 21 20 21 19 20 20 20 21 19 21 21 23 18 20 18 15 18 14 13 18 18 17 17 17 16 11 13 13 13
11 6 6 5 6 13 13 19 12 12 11 12 16 19 19 17 18 19 19 19 18 19 18 19 19 19 20 20 19 18 20 21 19 19 20 19 19 18 16 17 17 17 17 18 17 12 13 15 12
5 5 7 5 8 10 13 11 7 7 4 14 15 17 17 16 14 16 17 18 17 17 17 18 18 17 17 19 19 19 19 21 19 19 20 19 21 14 20 17 17 15 15 16 15 14 15 17 14
4 5 7 5 13 12 13 20 1 6 10 9 13 17 16 14 14 15 16 17 17 17 18 17 17 16 16 16 16 17 20 20 20 19 20 19 16 14 15 18 16 17 17 17 17 16 14 15 14
Wind_Direction
290 285 268 241 243 236 254 241 243 247 244 253 272 260 228 236 262 299 116 31 12 18 10 16 1 354 318 256 223 206 195 192 185 182 178 177 174 174 171 170 170 174 177 170 168 166 159 156 156
303 272 222 247 247 252 252 245 251 254 245 212 271 237 249 248 256 107 198 9 5 16 9 21 358 2 355 333 246 222 202 195 194 188 184 182 178 180 177 173 174 178 181 171 172 178 163 159 159
268 254 250 230 239 241 257 271 288 326 210 252 238 234 254 246 204 69 30 356 354 8 5 18 0 5 9 4 338 242 219 207 201 194 190 186 185 182 182 177 178 178 183 174 175 170 167 159 158
242 199 254 245 246 246 251 269 279 309 283 269 279 264 244 35 63 54 9 353 350 352 360 359 6 359 0 2 359 346 242 217 209 201 195 192 188 184 186 180 181 182 182 181 176 169 166 163 160
235 258 243 242 250 258 264 272 271 257 263 249 235 248 258 104 98 34 351 344 341 338 349 344 356 359 349 357 2 349 347 237 217 209 201 197 192 187 186 184 183 184 183 184 177 173 164 166 163
238 258 246 250 255 261 260 261 268 264 249 261 258 256 257 199 30 356 339 332 332 327 331 339 336 348 338 341 351 348 343 336 231 216 207 201 196 191 187 186 186 184 184 184 180 173 165 166 165
248 249 252 263 269 277 277 292 287 274 262 261 306 260 262 248 47 341 326 322 322 322 320 328 329 331 324 332 336 338 340 333 306 226 215 207 199 199 189 188 187 186 184 184 179 170 167 166 166
275 260 265 259 267 270 279 323 329 303 273 328 288 256 252 303 332 323 318 311 311 311 316 319 322 324 321 322 319 328 330 325 313 259 229 213 204 203 195 192 188 188 185 183 176 171 167 165 167
247 249 251 260 264 275 287 266 281 301 276 270 275 275 286 299 308 311 309 309 308 307 310 311 314 315 319 311 306 312 319 319 321 257 232 220 211 207 200 198 193 191 188 185 175 170 166 159 161
220 238 253 270 308 308 311 314 297 300 280 273 272 274 283 291 302 299 301 300 302 301 304 307 306 309 312 311 305 307 306 310 317 302 243 222 219 214 208 206 199 193 187 187 177 173 158 152 169
242 251 282 292 315 302 298 291 283 279 275 272 279 288 300 296 286 287 287 286 289 295 295 297 300 302 301 300 300 294 288 298 304 313 279 232 221 224 213 215 200 198 190 189 182 169 164 177 172
269 258 264 278 281 286 277 289 278 273 272 278 283 281 284 283 281 281 284 286 288 289 290 291 291 291 291 290 287 292 289 287 291 293 299 240 225 218 216 207 209 204 192 190 185 179 173 181 183
258 261 272 279 281 274 277 270 273 275 273 274 274 273 272 268 271 275 268 273 277 275 279 282 284 284 287 289 287 283 282 278 280 284 283 288 230 218 207 205 200 199 197 189 181 178 176 183 190
292 292 281 284 278 272 269 273 284 273 273 274 271 280 288 286 284 276 273 279 277 278 274 274 277 278 279 280 283 277 274 276 271 268 269 281 268 225 211 201 195 196 193 188 176 177 178 180 187
272 277 274 272 274 273 291 289 264 267 277 291 290 289 286 288 285 279 278 282 284 280 280 279 277 273 272 273 278 273 266 269 269 267 266 269 277 245 221 210 198 191 187 182 185 172 176 175 173
263 262 273 271 273 273 238 275 279 283 290 297 296 289 288 285 281 280 282 284 283 288 284 281 275 275 275 275 275 278 277 276 275 260 265 267 268 267 209 218 216 193 183 174 170 163 164 165 167
261 265 267 273 272 284 274 274 278 283 284 289 288 286 288 285 281 280 290 317 307 296 295 293 289 277 268 264 266 270 269 268 268 273 262 265 273 271 248 208 224 204 185 170 163 165 166 163 168
284 293 297 294 292 304 296 282 285 284 291 285 284 283 281 280 278 306 322 300 295 295 294 290 283 284 283 272 264 262 266 262 261 268 276 262 260 265 245 237 207 228 177 170 164 160 169 167 162
293 287 288 283 289 290 283 285 279 286 285 284 284 281 277 275 291 319 288 293 291 289 290 290 292 287 281 279 264 250 254 257 254 252 252 259 256 255 252 238 201 148 187 170 166 162 152 122 134
287 280 281 281 288 287 291 284 289 287 282 282 273 284 285 305 303 295 302 300 294 292 291 288 284 281 278 269 262 264 262 266 264 254 260 254 243 242 242 235 180 162 169 157 185 163 150 107 171
284 284 285 295 305 290 282 282 291 304 301 310 45 300 302 292 304 306 304 303 300 295 294 290 287 282 279 274 271 269 266 255 254 250 254 261 255 234 229 226 177 167 164 172 175 165 178 151 188
293 288 288 296 300 295 305 295 291 290 281 252 198 239 294 310 311 309 309 305 302 298 295 290 283 278 272 272 266 259 258 254 243 244 246 240 259 233 217 206 182 170 169 167 174 172 170 160 183
289 293 301 289 288 295 284 268 281 280 287 129 224 308 311 312 312 311 307 304 300 297 292 289 284 278 273 267 263 258 260 255 251 248 247 245 252 236 212 176 178 168 174 167 166 171 170 164 159
301 299 294 279 273 249 263 250 289 318 336 304 292 317 317 320 313 309 310 306 302 300 297 292 288 282 276 270 271 253 254 256 247 233 236 247 248 231 213 183 184 168 166 165 171 168 175 167 176
247 293 294 278 227 275 331 279 274 309 7 22 322 321 324 313 312 314 313 308 306 303 300 297 289 281 280 273 266 262 255 249 249 239 230 227 253 223 203 184 184 171 170 168 166 171 175 177 169
298 295 281 300 300 311 311 273 274 300 148 189 308 336 318 320 319 317 314 311 305 302 300 297 293 285 277 269 263 254 261 243 239 233 235 238 241 223 198 182 179 163 163 163 168 170 174 171 165
3 251 309 290 263 268 255 262 277 58 104 315 332 327 327 326 323 318 316 313 312 310 306 298 292 283 276 269 264 254 250 248 235 227 226 227 249 222 186 175 169 160 163 161 164 167 171 168 167
233 346 281 240 287 307 302 308 301 351 347 327 319 327 327 324 321 317 316 315 311 309 305 300 291 285 278 272 263 256 246 247 237 229 225 220 237 210 168 182 176 161 163 162 165 166 168 168 170
245 250 218 271 275 299 311 304 357 351 354 309 316 330 328 328 325 320 317 313 310 309 305 300 294 288 279 269 261 251 241 244 248 225 225 221 228 181 177 176 164 155 157 159 155 158 161 168 166
248 277 284 262 304 304 296 279 270 140 324 324 337 333 333 333 331 326 321 318 317 315 311 309 302 296 286 277 265 251 237 232 242 230 223 229 186 167 172 160 150 158 156 158 151 150 160 155 159